Ephrata, WA
on Sunday, December 2, 2012

Sunday
Previous Day Next Day
Daily Summary
 ActualAverageRecord
Temperature
Mean Temperature °F 30°F  
Max Temperature 52°F 37°F 57°F (1977)
Min Temperature 33°F 24°F 2°F (2006)
Degree Days
Heating Degree Days 22 35  
Month to date heating degree days 41 69  
Since 1 July heating degree days 1301 1488  
Cooling Degree Days 0 0  
Month to date cooling degree days 0 0  
Year to date cooling degree days 837 772  
Moisture
Dew Point 37°F   
Average Humidity 69    
Maximum Humidity 96    
Minimum Humidity 41    
Precipitation
Precipitation 0.30 in 0.05 in 0.40 in (1985)
Month to date precipitation 0.34 0.09  
Year to date precipitation 7.29 6.70  
Wind
Wind Speed 9 mph   
Max Wind Speed 24 mph   
Max Gust Speed 30 mph   
Visibility 10 miles   
Events Rain   

Key: T is trace of precipitation, MM is missing value
Source: NWS Daily Summary
Time(PST)TemperatureDew PointHumidity Pressure Visibility Wind DirectionWind SpeedGust SpeedPrecipitationEvents Conditions
12:15 AM 41.0°F 39.2°F 93% 29.43 in 10.0 miles North 5.8 mph - 0.00 in   Overcast
12:53 AM 41.0°F 39.0°F 93% 29.39 in 10.0 miles NNE 4.6 mph - 0.00 in Rain Light Rain
1:25 AM 41.0°F 39.2°F 93% 29.35 in 10.0 miles North 4.6 mph - 0.01 in Rain Light Rain
1:53 AM 43.0°F 41.0°F 93% 29.33 in 9.0 miles ESE 4.6 mph - 0.02 in Rain Light Rain
2:14 AM 44.6°F 41.0°F 87% 29.31 in 9.0 miles SE 6.9 mph - 0.02 in Rain Light Rain
2:29 AM 44.6°F 42.8°F 93% 29.30 in 10.0 miles SSE 5.8 mph - 0.03 in Rain Light Rain
2:51 AM 42.8°F 41.0°F 93% 29.28 in 7.0 miles SE 10.4 mph - 0.06 in Rain Light Rain
2:53 AM 43.0°F 41.0°F 93% 29.29 in 8.0 miles SE 12.7 mph - 0.06 in Rain Light Rain
3:53 AM 43.0°F 41.0°F 93% 29.25 in 9.0 miles ESE 17.3 mph 21.9 mph 0.10 in Rain Light Rain
4:30 AM 42.8°F 41.0°F 93% 29.21 in 10.0 miles ESE 6.9 mph - 0.02 in Rain Light Rain
4:43 AM 42.8°F 41.0°F 93% 29.21 in 10.0 miles East 8.1 mph - 0.03 in Rain Light Rain
4:53 AM 42.1°F 41.0°F 96% 29.23 in 8.0 miles East 8.1 mph - 0.04 in Rain Light Rain
5:30 AM 42.8°F 39.2°F 87% 29.20 in 7.0 miles Calm Calm - 0.02 in Rain Light Rain
5:53 AM 42.1°F 41.0°F 96% 29.22 in 8.0 miles Calm Calm - 0.04 in Rain Light Rain
6:53 AM 42.1°F 41.0°F 96% 29.21 in 10.0 miles Calm Calm - 0.03 in   Overcast
7:53 AM 42.1°F 41.0°F 96% 29.23 in 10.0 miles SW 3.5 mph - N/A   Overcast
8:53 AM 42.1°F 41.0°F 96% 29.28 in 10.0 miles SSW 6.9 mph - N/A   Overcast
9:28 AM 44.6°F 42.8°F 93% 29.27 in 10.0 miles South 9.2 mph - N/A   Overcast
9:53 AM 44.1°F 41.0°F 89% 29.31 in 10.0 miles SSW 5.8 mph - N/A   Overcast
10:24 AM 44.6°F 41.0°F 87% 29.32 in 10.0 miles South 4.6 mph - N/A   Mostly Cloudy
10:53 AM 46.9°F 41.0°F 80% 29.36 in 10.0 miles WSW 9.2 mph - N/A   Clear
11:53 AM 52.0°F 34.0°F 50% 29.39 in 10.0 miles WSW 16.1 mph 21.9 mph N/A   Clear
12:53 PM 52.0°F 28.0°F 40% 29.45 in 10.0 miles SW 10.4 mph - 0.01 in   Clear
1:53 PM 50.0°F 30.9°F 48% 29.49 in 10.0 miles SW 19.6 mph - N/A   Clear
2:53 PM 46.9°F 32.0°F 56% 29.53 in 10.0 miles SW 13.8 mph - N/A   Clear
3:53 PM 46.9°F 32.0°F 56% 29.59 in 10.0 miles SW 11.5 mph - N/A   Clear
4:53 PM 42.1°F 32.0°F 67% 29.64 in 10.0 miles WSW 5.8 mph - N/A   Clear
5:53 PM 43.0°F 33.1°F 68% 29.67 in 10.0 miles SW 13.8 mph 21.9 mph N/A   Clear
6:53 PM 41.0°F 33.1°F 73% 29.70 in 10.0 miles WSW 6.9 mph - N/A   Clear
7:53 PM 37.0°F 32.0°F 82% 29.72 in 10.0 miles SSW 5.8 mph - N/A   Clear
8:53 PM 34.0°F 30.9°F 89% 29.75 in 10.0 miles South 3.5 mph - N/A   Clear
9:53 PM 34.0°F 30.9°F 89% 29.76 in 10.0 miles South 5.8 mph - N/A   Clear
10:53 PM 34.0°F 30.9°F 89% 29.79 in 10.0 miles SW 8.1 mph - N/A   Clear
11:53 PM 37.9°F 34.0°F 86% 29.81 in 10.0 miles SW 10.4 mph - N/A   Clear
Moon Phase
Dec. 02 Dec. 06 Dec. 13 Dec. 20 Dec. 28
Sunrise:07:26 AM (PST) Moon Rise:08:08 PM (PST)12/2
Sunset:04:09 PM (PST) Moon Set:10:12 AM (PST)12/2

Copyright © 2014 The Weather Underground, Inc.